#timestamp,LO_Frequency,Hit,StdDev 
1657180815.6,286046998.8,N
1657180835.4,286046999.5,N
1657180855.2,286046997.2,N
1657180875.1,286046995.5,Y
1657180876.0,286046995.5,P
1657180895.8,286046996.2,N
1657180915.6,286046995.9,N
1657180935.5,286046993.4,Y
1657180955.3,286046996.8,P
1657180975.2,286046997.5,P
1657180995.9,286046995.5,P
1657181015.7,286046998.0,N
1657181035.6,286046995.4,Y
1657181055.4,286046998.3,P
1657181075.2,286047000.6,N
1657181095.1,286047000.0,N
1657181096.0,286047000.0,N
1657181115.8,286046998.2,N
1657181135.7,286047000.7,N
1657181155.5,286047001.3,N
1657181175.3,286047004.0,N
1657181195.2,286047001.6,N
1657181215.0,286047000.5,N
1657181215.9,286047000.5,N
1657181235.7,286047000.9,N
1657181255.6,286046999.9,N
1657181275.4,286047000.2,N
1657181295.3,286047002.7,N
1657181315.1,286047002.3,N
1657181316.0,286047002.3,N
1657181335.8,286047001.9,N
1657181355.7,286047003.3,N
1657181375.5,286047005.0,N
1657181395.3,286047004.9,N
1657181415.2,286047007.1,Y
1657181435.0,286047004.8,P
1657181435.9,286047004.8,N
1657181455.8,286047004.9,N
1657181475.6,286047006.8,Y
1657181495.4,286047004.1,P
1657181515.3,286047003.7,P
1657181535.1,286047004.2,P
1657181555.8,286047001.9,Y
1657181575.7,286046995.0,P
1657181595.5,286046997.6,N
1657181615.4,286046995.3,N
1657181635.2,286046995.9,N
1657181655.0,286046995.8,N
1657181655.9,286046995.8,N
1657181675.8,286046996.4,N
1657181695.6,286046995.7,N
1657181715.5,286046995.6,N
1657181735.3,286046995.2,N
1657181755.1,286046995.9,N
1657181775.9,286046994.3,N
1657181795.7,286046991.8,Y
1657181815.5,286046997.5,P
1657181835.4,286046996.0,P
1657181855.2,286046995.9,P
1657181875.1,286046993.6,Y
1657181876.0,286046993.6,P
1657181895.8,286046997.8,N
1657181915.6,286046997.1,N
1657181935.5,286046997.9,N
1657181955.3,286046995.3,Y
1657181975.1,286047000.0,P
1657181995.9,286047001.0,N
1657182015.7,286047005.6,N
1657182035.6,286047004.1,N
1657182055.4,286047004.1,N
1657182075.2,286047004.3,N
1657182095.1,286047004.0,N
1657182096.0,286047004.0,N
1657182115.8,286047001.7,N
1657182135.7,286047002.1,N
1657182155.5,286047000.1,N
1657182175.3,286046999.7,N
1657182195.2,286047000.1,N
1657182215.9,286047000.3,N
1657182235.7,286047000.0,N
1657182255.6,286047000.8,N
1657182275.4,286046998.4,N
1657182295.2,286046999.0,N
1657182315.1,286046999.3,N
1657182316.0,286046999.3,N
1657182335.8,286046999.1,N
1657182355.7,286046997.0,N
1657182375.5,286046999.5,N
1657182395.3,286046997.8,N
1657182415.2,286046997.7,N
1657182435.0,286046995.4,N
1657182435.9,286046995.4,N
1657182455.7,286046995.8,N
1657182475.6,286046995.1,N
1657182495.4,286046997.9,N
1657182515.3,286046997.2,N
1657182535.1,286046997.3,N
1657182536.0,286046997.3,N
1657182555.8,286046998.0,N
1657182575.7,286046997.8,N
1657182595.5,286046995.7,N
1657182615.3,286046997.8,N
1657182635.2,286046995.3,N
1657182655.0,286046995.4,N
1657182655.9,286046995.4,N
1657182675.8,286046995.0,N
1657182695.6,286046995.2,N
1657182715.4,286046995.9,N
1657182735.3,286046994.5,Y
1657182755.1,286046997.2,P
1657182775.8,286046997.9,P
1657182795.7,286046995.3,P
1657182815.5,286046997.1,N
1657182835.4,286046997.8,N
1657182855.2,286046998.0,N
1657182875.0,286046995.9,Y
1657182875.9,286046995.9,P
1657182895.8,286046996.5,P
1657182915.6,286046996.7,P
1657182935.5,286046999.4,N
1657182955.3,286046997.1,N
1657182975.1,286046997.1,N
1657182995.9,286046997.4,N
1657183015.7,286046997.1,Y
1657183035.5,286046998.2,P
1657183055.4,286047001.2,N
1657183075.2,286047001.0,N
1657183095.1,286047001.0,N
1657183096.0,286047001.0,N
1657183115.8,286047000.2,N
1657183135.6,286047000.1,N
1657183155.5,286046998.5,N
1657183175.3,286047000.7,N
1657183195.1,286047000.9,N
1657183215.9,286046998.1,N
1657183235.7,286046998.7,N
1657183255.6,286046999.4,N
1657183275.4,286046999.3,N
1657183295.2,286046999.0,N
1657183315.1,286046999.5,N
1657183316.0,286046999.5,N
1657183335.8,286046999.1,N
1657183355.7,286047001.2,N
1657183375.5,286047001.2,N
1657183395.3,286046998.6,N
1657183415.2,286046998.8,N
1657183435.0,286046998.3,N
1657183435.9,286046998.3,N
1657183455.7,286046999.0,N
1657183475.6,286046998.4,N
1657183495.4,286046998.1,N
1657183515.3,286047000.7,N
1657183535.1,286047001.1,N
1657183555.8,286047001.9,N
1657183575.7,286047002.4,N
1657183595.5,286047000.2,N
1657183615.4,286047002.8,N
1657183635.2,286047000.3,N
1657183655.0,286047000.3,N
1657183655.9,286047000.3,N
1657183675.8,286047002.6,N
1657183695.6,286046999.8,N
1657183715.4,286047004.1,Y
1657183735.3,286047001.8,P
1657183755.1,286047001.9,N
1657183775.9,286047002.1,N
1657183795.7,286047000.5,N
1657183815.5,286047000.1,N
1657183835.4,286047000.6,N
1657183855.2,286047000.0,N
1657183875.0,286047000.3,N
1657183875.9,286047000.3,N
1657183895.8,286046998.2,N
1657183915.6,286047002.7,N
1657183935.5,286047000.5,N
1657183955.3,286046999.9,N
1657183975.1,286047000.9,N
1657183995.9,286047000.6,N
1657184015.7,286047000.2,N
1657184035.5,286046999.8,N
1657184055.4,286047002.3,N
1657184075.2,286046999.9,N
1657184095.1,286047002.7,N
1657184096.0,286047002.7,N
1657184115.8,286047000.2,N
1657184135.6,286047002.0,N
1657184155.5,286047000.0,N
1657184175.3,286047000.8,N
1657184195.1,286046998.3,N
1657184215.9,286047000.4,N
1657184235.7,286046999.9,N
1657184255.6,286047000.5,N
1657184275.4,286047000.9,N
1657184295.2,286046999.9,N
1657184315.1,286046999.8,N
1657184316.0,286046999.8,N
1657184335.8,286047002.0,N
1657184355.6,286047001.5,N
1657184375.5,286047002.7,N
1657184395.3,286047001.5,N
